When you browse on this site, cookies collect data to enhance your experience and personalize the content and advertising you see.
Visit our Privacy Policy to learn more. By continuing to use the site, you agree to this use of cookies and data.
  • In Romania
  • List of Countries
  • For 7 days
  • Water Temperature
  • Weather Map
  • Weather Widgets
  • user-avatar
    Login

    Hourly Weather Saint-Dizier

    Today, 19 September, Thursday

    Time Temperature Precipitation Wind Pressure Humidity
    00:00 +10°C° 0 mm 4 mps 756 mmHg 68%
    01:00 +10°C° 0 mm 4 mps 756 mmHg 69%
    02:00 +8°C° 0 mm 4 mps 756 mmHg 71%
    03:00 +8°C° 0 mm 4 mps 756 mmHg 72%
    04:00 +8°C° 0 mm 4 mps 756 mmHg 73%
    05:00 +7°C° 0 mm 4 mps 756 mmHg 74%
    06:00 +7°C° 0 mm 5 mps 756 mmHg 75%
    07:00 +10°C° 0 mm 5 mps 757 mmHg 66%
    08:00 +13°C° 0 mm 6 mps 757 mmHg 56%
    09:00 +15°C° 0 mm 7 mps 757 mmHg 46%
    10:00 +16°C° 0 mm 7 mps 757 mmHg 44%
    11:00 +17°C° 0 mm 7 mps 757 mmHg 41%
    12:00 +19°C° 0 mm 6 mps 757 mmHg 39%
    13:00 +19°C° 0 mm 6 mps 756 mmHg 38%
    14:00 +20°C° 0 mm 6 mps 756 mmHg 37%
    15:00 +20°C° 0 mm 6 mps 756 mmHg 36%
    16:00 +17°C° 0 mm 6 mps 756 mmHg 40%
    17:00 +15°C° 0 mm 5 mps 756 mmHg 44%
    18:00 +13°C° 0 mm 4 mps 756 mmHg 48%
    19:00 +12°C° 0 mm 5 mps 756 mmHg 50%
    20:00 +10°C° 0 mm 5 mps 756 mmHg 52%
    21:00 +10°C° 0 mm 5 mps 757 mmHg 54%
    22:00 +9°C° 0 mm 5 mps 757 mmHg 55%
    23:00 +9°C° 0 mm 5 mps 756 mmHg 57%

    Tomorrow, 20 September, Friday

    Time Temperature Precipitation Wind Pressure Humidity
    00:00 +8°C° 0 mm 5 mps 756 mmHg 59%
    01:00 +8°C° 0 mm 5 mps 756 mmHg 60%
    02:00 +8°C° 0 mm 5 mps 756 mmHg 61%
    03:00 +8°C° 0 mm 5 mps 755 mmHg 62%
    04:00 +8°C° 0 mm 5 mps 755 mmHg 63%
    05:00 +7°C° 0 mm 5 mps 755 mmHg 64%
    06:00 +7°C° 0 mm 5 mps 755 mmHg 65%
    07:00 +10°C° 0 mm 6 mps 755 mmHg 57%
    08:00 +12°C° 0 mm 7 mps 755 mmHg 49%
    09:00 +16°C° 0 mm 7 mps 755 mmHg 40%
    10:00 +17°C° 0 mm 7 mps 754 mmHg 37%
    11:00 +20°C° 0 mm 7 mps 754 mmHg 33%
    12:00 +21°C° 0 mm 7 mps 753 mmHg 30%
    13:00 +21°C° 0 mm 7 mps 753 mmHg 30%
    14:00 +22°C° 0 mm 7 mps 752 mmHg 30%
    15:00 +22°C° 0 mm 7 mps 751 mmHg 30%
    16:00 +20°C° 0 mm 6 mps 751 mmHg 35%
    17:00 +17°C° 0 mm 6 mps 751 mmHg 40%
    18:00 +15°C° 0 mm 5 mps 751 mmHg 45%
    19:00 +14°C° 0 mm 5 mps 750 mmHg 48%
    20:00 +13°C° 0 mm 5 mps 750 mmHg 52%
    21:00 +13°C° 0 mm 5 mps 750 mmHg 55%
    22:00 +12°C° 0 mm 5 mps 750 mmHg 58%
    23:00 +12°C° 0 mm 5 mps 750 mmHg 60%

    Day after tomorrow, 21 September, Saturday

    Time Temperature Precipitation Wind Pressure Humidity
    00:00 +11°C° 0 mm 4 mps 749 mmHg 62%
    01:00 +11°C° 0 mm 4 mps 749 mmHg 64%
    02:00 +11°C° 0 mm 4 mps 749 mmHg 66%
    03:00 +11°C° 0 mm 4 mps 749 mmHg 67%
    04:00 +12°C° 0 mm 4 mps 749 mmHg 71%
    05:00 +12°C° 0 mm 4 mps 748 mmHg 74%
    06:00 +12°C° 0 mm 3 mps 748 mmHg 78%
    07:00 +15°C° 0 mm 4 mps 748 mmHg 70%
    08:00 +19°C° 0 mm 4 mps 748 mmHg 62%
    09:00 +22°C° 0 mm 5 mps 748 mmHg 54%
    10:00 +25°C° 0 mm 5 mps 748 mmHg 49%
    11:00 +27°C° 0 mm 6 mps 747 mmHg 44%
    12:00 +29°C° 0 mm 6 mps 747 mmHg 39%
    13:00 +29°C° 0 mm 6 mps 746 mmHg 39%
    14:00 +29°C° 0 mm 6 mps 746 mmHg 38%
    15:00 +29°C° 0 mm 6 mps 745 mmHg 38%
    16:00 +27°C° 0 mm 5 mps 745 mmHg 44%
    17:00 +25°C° 0 mm 4 mps 745 mmHg 51%
    18:00 +22°C° 0 mm 3 mps 744 mmHg 57%
    19:00 +21°C° 0 mm 3 mps 744 mmHg 59%
    20:00 +21°C° 0 mm 3 mps 744 mmHg 62%
    21:00 +20°C° 0 mm 3 mps 744 mmHg 64%
    22:00 +20°C° 0 mm 3 mps 745 mmHg 66%
    23:00 +20°C° 0 mm 3 mps 745 mmHg 69%

    22 September, Sunday

    Time Temperature Precipitation Wind Pressure Humidity
    00:00 +20°C° 0 mm 3 mps 745 mmHg 71%
    01:00 +19°C° 0.2 mm 3 mps 744 mmHg 76%
    02:00 +19°C° 0.2 mm 4 mps 744 mmHg 81%
    03:00 +19°C° 0.2 mm 4 mps 744 mmHg 86%
    04:00 +18°C° 0 mm 4 mps 744 mmHg 88%
    05:00 +18°C° 0 mm 4 mps 743 mmHg 90%
    06:00 +17°C° 0 mm 4 mps 743 mmHg 92%
    07:00 +19°C° 0 mm 5 mps 743 mmHg 84%
    08:00 +21°C° 0 mm 5 mps 743 mmHg 76%
    09:00 +23°C° 0 mm 5 mps 743 mmHg 68%
    10:00 +25°C° 0.2 mm 5 mps 743 mmHg 64%
    11:00 +26°C° 0.2 mm 5 mps 743 mmHg 60%
    12:00 +27°C° 0.2 mm 5 mps 743 mmHg 56%
    13:00 +24°C° 0.9 mm 6 mps 743 mmHg 63%
    14:00 +23°C° 0.9 mm 6 mps 743 mmHg 71%
    15:00 +21°C° 0.9 mm 7 mps 743 mmHg 79%
    16:00 +19°C° 0.6 mm 6 mps 743 mmHg 83%
    17:00 +16°C° 0.6 mm 5 mps 744 mmHg 88%
    18:00 +14°C° 0.6 mm 5 mps 744 mmHg 92%
    19:00 +14°C° 1.2 mm 5 mps 745 mmHg 93%
    20:00 +14°C° 1.2 mm 4 mps 746 mmHg 93%
    21:00 +13°C° 1.2 mm 4 mps 746 mmHg 93%
    22:00 +13°C° 0 mm 4 mps 747 mmHg 92%
    23:00 +13°C° 0 mm 5 mps 747 mmHg 92%

    23 September, Monday

    Time Temperature Precipitation Wind Pressure Humidity
    00:00 +13°C° 0 mm 5 mps 747 mmHg 91%
    01:00 +13°C° 0 mm 5 mps 747 mmHg 92%
    02:00 +13°C° 0 mm 5 mps 747 mmHg 93%
    03:00 +13°C° 0 mm 5 mps 747 mmHg 94%
    04:00 +12°C° 0 mm 5 mps 748 mmHg 94%
    05:00 +11°C° 0 mm 4 mps 748 mmHg 95%
    06:00 +11°C° 0 mm 4 mps 748 mmHg 96%
    07:00 +12°C° 0 mm 4 mps 749 mmHg 90%
    08:00 +13°C° 0 mm 4 mps 749 mmHg 84%
    09:00 +15°C° 0 mm 4 mps 749 mmHg 77%
    10:00 +17°C° 0 mm 4 mps 749 mmHg 67%
    11:00 +19°C° 0 mm 4 mps 749 mmHg 57%
    12:00 +21°C° 0 mm 4 mps 748 mmHg 46%
    13:00 +21°C° 0 mm 4 mps 748 mmHg 45%
    14:00 +21°C° 0 mm 3 mps 748 mmHg 44%
    15:00 +21°C° 0 mm 3 mps 747 mmHg 43%
    16:00 +20°C° 0 mm 3 mps 747 mmHg 50%
    17:00 +19°C° 0 mm 2 mps 747 mmHg 57%
    18:00 +17°C° 0 mm 2 mps 748 mmHg 64%
    19:00 +16°C° 0 mm 3 mps 748 mmHg 70%
    20:00 +16°C° 0 mm 3 mps 748 mmHg 75%
    21:00 +14°C° 0 mm 4 mps 749 mmHg 81%
    22:00 +14°C° 0.2 mm 4 mps 749 mmHg 85%
    23:00 +14°C° 0.2 mm 4 mps 749 mmHg 90%

    24 September, Tuesday

    Time Temperature Precipitation Wind Pressure Humidity
    00:00 +14°C° 0.2 mm 4 mps 749 mmHg 94%
    01:00 +14°C° 0.2 mm 4 mps 748 mmHg 94%
    02:00 +14°C° 0.2 mm 4 mps 748 mmHg 94%
    03:00 +14°C° 0.2 mm 4 mps 748 mmHg 94%
    04:00 +14°C° 0.4 mm 4 mps 748 mmHg 94%
    05:00 +14°C° 0.4 mm 4 mps 748 mmHg 94%
    06:00 +14°C° 0.4 mm 4 mps 748 mmHg 94%
    07:00 +14°C° 0.3 mm 4 mps 748 mmHg 93%
    08:00 +14°C° 0.3 mm 4 mps 748 mmHg 92%
    09:00 +15°C° 0.3 mm 4 mps 748 mmHg 92%
    10:00 +15°C° 0.3 mm 4 mps 748 mmHg 91%
    11:00 +17°C° 0.3 mm 4 mps 748 mmHg 90%
    12:00 +17°C° 0.3 mm 4 mps 747 mmHg 89%
    13:00 +18°C° 0.1 mm 4 mps 747 mmHg 89%
    14:00 +18°C° 0.1 mm 3 mps 747 mmHg 89%
    15:00 +18°C° 0.1 mm 3 mps 746 mmHg 89%
    16:00 +17°C° 0.8 mm 4 mps 746 mmHg 91%
    17:00 +17°C° 0.8 mm 4 mps 745 mmHg 92%
    18:00 +16°C° 0.8 mm 5 mps 745 mmHg 94%
    19:00 +16°C° 0.4 mm 5 mps 745 mmHg 94%
    20:00 +16°C° 0.4 mm 6 mps 745 mmHg 94%
    21:00 +16°C° 0.4 mm 6 mps 745 mmHg 93%
    22:00 +16°C° 0.1 mm 5 mps 745 mmHg 94%
    23:00 +16°C° 0.1 mm 5 mps 744 mmHg 94%
    Show more